| time (UTC) | temp F | wind direction | speed MPH | gust MPH | rain 1hr in | rain 24hr in | rain mn in | humidity % | barometer mb |
| 20260509023041 | 54 | 86 | 0.0 | 0.0 | 0.00 | 0.00 | 0.00 | 36 | 1013.5 |
| 20260509021535 | 53 | 86 | 0.0 | 0.0 | 0.00 | 0.00 | 0.00 | 36 | 1013.3 |
| 20260509020031 | 53 | 86 | 0.0 | 0.0 | 0.00 | 0.00 | 0.00 | 36 | 1013.2 |
| 20260509014528 | 53 | 86 | 0.0 | 0.0 | 0.00 | 4.46 | 0.00 | 40 | 1013.0 |
| 20260509013041 | 54 | 86 | 0.0 | 0.0 | 0.00 | 4.46 | 0.00 | 43 | 1012.9 |
| 20260509011517 | 54 | 86 | 0.0 | 0.0 | 0.00 | 4.46 | 0.00 | 44 | 1012.6 |
| 20260509010023 | 54 | 86 | 0.0 | 0.0 | 0.00 | 4.53 | 0.00 | 46 | 1012.3 |
| 20260509004527 | 54 | 86 | 0.0 | 0.0 | 0.00 | 4.53 | 0.00 | 47 | 1012.0 |
| 20260509003007 | 55 | 86 | 0.0 | 0.0 | 0.00 | 4.53 | 0.00 | 48 | 1011.9 |
| 20260509001502 | 55 | 86 | 0.0 | 0.0 | 0.00 | 4.53 | 0.00 | 49 | 1011.7 |
| 20260509000059 | 56 | 86 | 0.0 | 0.0 | 0.00 | 4.53 | 0.00 | 50 | 1011.7 |
| 20260508234555 | 56 | 86 | 0.0 | 0.0 | 0.00 | 4.53 | 0.00 | 50 | 1011.8 |
| 20260508233103 | 56 | 86 | 0.0 | 1.0 | 0.00 | 4.53 | 0.00 | 51 | 1011.9 |
| 20260508231545 | 57 | 76 | 0.0 | 2.0 | 0.00 | 4.53 | 0.00 | 51 | 1011.5 |
| 20260508230053 | 57 | 60 | 0.0 | 1.0 | 0.00 | 4.53 | 0.00 | 51 | 1011.4 |
| 20260508224536 | 58 | 26 | 0.0 | 1.0 | 0.00 | 4.53 | 0.00 | 51 | 1011.5 |
| 20260508223033 | 58 | 84 | 0.0 | 1.0 | 0.00 | 4.53 | 0.00 | 51 | 1011.5 |
| 20260508221528 | 58 | 352 | 0.0 | 1.0 | 0.00 | 4.53 | 0.00 | 52 | 1011.6 |
| 20260508220023 | 58 | 68 | 0.0 | 1.0 | 0.00 | 4.53 | 0.00 | 52 | 1011.7 |
| 20260508214520 | 59 | 45 | 0.0 | 2.0 | 0.00 | 4.53 | 0.00 | 52 | 1011.6 |
| 20260508213018 | 60 | 41 | 0.0 | 6.0 | 0.00 | 4.53 | 0.00 | 50 | 1011.5 |
| 20260508211511 | 60 | 59 | 0.0 | 3.0 | 0.00 | 4.53 | 0.00 | 48 | 1011.4 |
| 20260508210006 | 60 | 311 | 0.0 | 5.0 | 0.00 | 4.53 | 0.00 | 47 | 1011.4 |
| 20260508204502 | 60 | 286 | 0.0 | 3.0 | 0.00 | 4.53 | 0.00 | 46 | 1011.7 |
| 20260508203058 | 61 | 49 | 1.0 | 5.0 | 0.00 | 4.53 | 0.00 | 47 | 1011.6 |
| 20260508201555 | 61 | 246 | 0.0 | 4.0 | 0.00 | 4.53 | 0.00 | 47 | 1011.5 |
| 20260508200051 | 61 | 273 | 0.0 | 5.0 | 0.00 | 4.53 | 0.00 | 47 | 1011.5 |
| 20260508194547 | 61 | 38 | 0.0 | 2.0 | 0.00 | 4.53 | 0.00 | 47 | 1011.5 |
| 20260508193047 | 61 | 342 | 1.0 | 3.0 | 0.00 | 4.53 | 0.00 | 48 | 1011.5 |
| 20260508191537 | 62 | 293 | 0.0 | 5.0 | 0.00 | 4.53 | 0.00 | 42 | 1011.3 |
| 20260508190040 | 62 | 259 | 1.0 | 5.0 | 0.00 | 4.53 | 0.00 | 43 | 1011.2 |
| 20260508184550 | 61 | 262 | 2.0 | 7.0 | 0.00 | 4.53 | 0.00 | 44 | 1011.5 |
| 20260508183022 | 60 | 233 | 0.0 | 6.0 | 0.00 | 4.53 | 0.00 | 46 | 1011.6 |
| 20260508181535 | 60 | 234 | 2.0 | 8.0 | 0.00 | 4.53 | 0.00 | 44 | 1011.5 |
| 20260508180011 | 60 | 229 | 1.0 | 8.0 | 0.00 | 4.53 | 0.00 | 44 | 1011.6 |
| 20260508174513 | 60 | 302 | 1.0 | 8.0 | 0.00 | 4.53 | 0.00 | 43 | 1011.8 |
| 20260508173003 | 59 | 259 | 0.0 | 10.0 | 0.00 | 4.53 | 0.00 | 45 | 1012.0 |
| 20260508171558 | 59 | 272 | 0.0 | 8.0 | 0.00 | 4.53 | 0.00 | 46 | 1012.2 |
| 20260508170054 | 59 | 302 | 3.0 | 8.0 | 0.00 | 4.53 | 0.00 | 45 | 1012.2 |
| 20260508164559 | 59 | 264 | 2.0 | 12.0 | 0.00 | 4.53 | 0.00 | 44 | 1012.5 |
| 20260508163045 | 59 | 291 | 0.0 | 10.0 | 0.00 | 4.53 | 0.00 | 45 | 1012.5 |
| 20260508161547 | 58 | 237 | 0.0 | 6.0 | 0.00 | 4.53 | 0.00 | 47 | 1012.7 |
| 20260508160036 | 58 | 293 | 1.0 | 14.0 | 0.00 | 4.53 | 0.00 | 46 | 1012.8 |
| 20260508154533 | 57 | 213 | 0.0 | 3.0 | 0.00 | 4.53 | 0.00 | 45 | 1013.0 |
| 20260508153028 | 58 | 283 | 1.0 | 5.0 | 0.00 | 4.53 | 0.00 | 44 | 1013.1 |
| 20260508151524 | 59 | 68 | 1.0 | 5.0 | 0.00 | 4.53 | 0.00 | 44 | 1013.0 |
| 20260508150022 | 60 | 164 | 3.0 | 7.0 | 0.00 | 4.53 | 0.00 | 42 | 1012.9 |
| 20260508144531 | 58 | 238 | 1.0 | 4.0 | 0.00 | 5.93 | 0.00 | 46 | 1013.0 |
| 20260508143010 | 57 | 2 | 0.0 | 3.0 | 0.00 | 5.93 | 0.00 | 47 | 1013.0 |
| 20260508141505 | 58 | 224 | 0.0 | 2.0 | 0.00 | 5.93 | 0.00 | 47 | 1013.0 |
| 20260508134600 | 57 | 238 | 0.0 | 7.0 | 0.00 | 5.93 | 0.00 | 46 | 1013.2 |
| 20260508133115 | 57 | 274 | 0.0 | 2.0 | 0.00 | 5.93 | 0.00 | 47 | 1013.4 |
| 20260508131549 | 55 | 259 | 0.0 | 4.0 | 0.00 | 5.93 | 0.00 | 47 | 1013.3 |
| 20260508130043 | 54 | 260 | 0.0 | 1.0 | 0.00 | 5.93 | 0.00 | 44 | 1013.4 |
| 20260508124539 | 52 | 283 | 0.0 | 2.0 | 0.00 | 5.93 | 0.00 | 39 | 1013.3 |
| 20260508123039 | 50 | 276 | 1.0 | 3.0 | 0.00 | 5.93 | 0.00 | 34 | 1013.4 |
| 20260508121535 | 49 | 264 | 0.0 | 1.0 | 0.00 | 5.93 | 0.00 | 1 | 1013.4 |
| 20260508120025 | 47 | 258 | 0.0 | 1.0 | 0.00 | 5.93 | 0.00 | 1 | 1013.4 |
| 20260508114521 | 47 | 259 | 0.0 | 1.0 | 0.00 | 5.93 | 0.00 | 1 | 1013.4 |
| 20260508113016 | 47 | 275 | 0.0 | 0.0 | 0.00 | 5.93 | 0.00 | 1 | 1013.3 |
| 20260508111512 | 46 | 258 | 0.0 | 0.0 | 0.00 | 5.93 | 0.00 | 1 | 1013.3 |
| 20260508110017 | 45 | 258 | 0.0 | 0.0 | 0.00 | 5.93 | 0.00 | 1 | 1013.1 |
| 20260508104503 | 44 | 258 | 0.0 | 0.0 | 0.00 | 5.93 | 0.00 | 1 | 1012.9 |
| 20260508103102 | 44 | 258 | 0.0 | 0.0 | 0.00 | 5.93 | 0.00 | 1 | 1012.8 |
| 20260508101610 | 43 | 258 | 0.0 | 1.0 | 0.00 | 5.93 | 0.00 | 1 | 1012.6 |
| 20260508100052 | 43 | 282 | 0.0 | 1.0 | 0.00 | 5.93 | 0.00 | 1 | 1012.3 |
| 20260508094546 | 43 | 283 | 0.0 | 0.0 | 0.00 | 5.93 | 0.00 | 1 | 1012.4 |
| 20260508093042 | 44 | 283 | 0.0 | 0.0 | 0.00 | 5.93 | 0.00 | 1 | 1012.4 |
| 20260508091545 | 44 | 283 | 0.0 | 0.0 | 0.00 | 5.93 | 0.00 | 1 | 1012.2 |
| 20260508090036 | 45 | 283 | 0.0 | 0.0 | 0.00 | 5.93 | 0.00 | 1 | 1012.2 |
| 20260508084528 | 45 | 283 | 0.0 | 0.0 | 0.00 | 5.93 | 0.00 | 1 | 1012.0 |
| 20260508083025 | 45 | 283 | 0.0 | 0.0 | 0.00 | 5.93 | 0.00 | 1 | 1011.7 |
| 20260508081519 | 46 | 283 | 0.0 | 1.0 | 0.00 | 5.93 | 0.00 | 1 | 1011.8 |
| 20260508080018 | 46 | 41 | 0.0 | 2.0 | 0.00 | 5.93 | 0.00 | 1 | 1012.4 |
| 20260508074517 | 46 | 31 | 0.0 | 0.0 | 0.00 | 5.93 | 0.00 | 1 | 1012.2 |
| 20260508073006 | 46 | 50 | 0.0 | 1.0 | 0.00 | 5.93 | 0.00 | 1 | 1012.0 |
| 20260508071502 | 46 | 38 | 0.0 | 1.0 | 0.00 | 5.93 | 0.00 | 1 | 1011.5 |
| 20260508070057 | 47 | 66 | 0.0 | 1.0 | 0.00 | 5.93 | 0.00 | 1 | 1011.4 |
| 20260508064553 | 47 | 37 | 0.0 | 0.0 | 0.00 | 9.32 | 0.00 | 1 | 1011.6 |
| 20260508063049 | 47 | 37 | 0.0 | 1.0 | 0.00 | 9.32 | 0.00 | 5 | 1011.4 |
| 20260508061544 | 48 | 39 | 0.0 | 2.0 | 0.00 | 9.32 | 0.00 | 15 | 1011.5 |
| 20260508060044 | 49 | 33 | 0.0 | 2.0 | 0.00 | 9.32 | 0.00 | 29 | 1012.1 |
| 20260508054546 | 49 | 335 | 0.0 | 2.0 | 0.00 | 9.32 | 0.00 | 39 | 1011.9 |
| 20260508053100 | 48 | 257 | 0.0 | 1.0 | 0.00 | 9.32 | 0.00 | 23 | 1011.3 |
| 20260508051534 | 47 | 265 | 0.0 | 1.0 | 0.00 | 9.32 | 0.00 | 15 | 1010.4 |
| 20260508050036 | 47 | 110 | 0.0 | 0.0 | 0.00 | 9.32 | 0.00 | 21 | 1009.5 |
| 20260508044531 | 48 | 110 | 0.0 | 1.0 | 0.00 | 9.32 | 0.00 | 22 | 1009.4 |
| 20260508043029 | 48 | 89 | 0.0 | 0.0 | 0.00 | 9.32 | 0.00 | 31 | 1009.8 |
| 20260508041546 | 47 | 89 | 0.0 | 0.0 | 0.00 | 9.32 | 0.00 | 31 | 1009.6 |
| 20260508040026 | 47 | 89 | 0.0 | 0.0 | 0.00 | 9.32 | 0.00 | 38 | 1009.5 |
| 20260508034520 | 48 | 89 | 0.0 | 0.0 | 0.00 | 9.32 | 9.32 | 39 | 1009.3 |
| 20260508033019 | 49 | 15 | 0.0 | 0.0 | 0.00 | 9.32 | 9.32 | 46 | 1009.3 |
| 20260508031509 | 49 | 15 | 0.0 | 0.0 | 0.00 | 9.32 | 9.32 | 46 | 1009.5 |
| 20260508030005 | 49 | 15 | 0.0 | 0.0 | 0.00 | 9.32 | 9.32 | 47 | 1009.6 |